Wetbulb
41.04 40.96 40.82 41.10 41.69 42.32 41.73 42.11 42.04 42.23 42.54 43.08 43.19 43.87 44.33 44.18 43.96 39.49 35.07 38.43 37.31 33.18 30.76 33.67 33.89 29.21 28.99 29.68 26.18 31.66 29.07 32.26 30.57 22.12 24.43 23.73 23.23 26.98 26.90 29.87 28.28 27.56 24.58 21.74 24.16 16.95 18.38 39.00 38.69 32.71 35.97 38.74 39.56 39.46
40.54 40.27 40.85 41.68 42.12 42.40 41.73 41.69 42.12 42.71 42.56 42.76 42.77 43.34 43.15 43.49 43.83 43.08 35.67 38.21 39.65 35.18 32.50 37.08 37.77 37.76 36.51 35.00 31.21 32.28 30.25 33.27 33.17 27.30 28.08 27.50 27.55 28.33 28.71 24.19 33.35 27.26 31.31 26.05 24.68 25.57 36.35 39.98 39.39 41.61 40.92 38.81 38.71 38.32
40.20 40.95 41.41 41.84 41.89 41.71 41.91 42.00 42.47 42.30 42.36 42.23 42.43 42.57 42.95 43.36 43.26 42.13 37.23 36.33 35.96 34.37 32.57 31.64 31.78 36.59 39.34 38.06 37.71 29.12 31.12 35.92 34.59 36.06 30.60 28.13 25.27 30.49 24.68 27.16 29.45 33.30 35.70 32.68 31.56 35.11 36.67 40.31 42.34 42.90 42.60 38.70 39.14 40.93
40.33 41.08 41.28 41.84 42.30 42.16 42.00 42.17 42.10 42.10 42.51 42.78 42.94 43.37 42.94 43.18 42.92 43.03 39.07 36.61 35.48 33.21 29.12 27.07 37.75 35.10 39.02 38.12 37.08 36.95 34.95 35.50 34.82 33.17 29.21 28.42 25.26 32.69 28.03 30.07 30.14 33.21 34.45 33.14 33.71 35.15 37.57 40.00 42.08 42.38 41.27 41.16 40.62 42.36
40.42 41.07 41.32 41.93 42.01 41.67 41.92 42.23 42.26 42.23 42.47 42.47 42.60 43.12 43.21 43.55 43.47 42.67 40.54 39.67 37.90 32.06 26.57 27.95 34.18 37.15 38.38 38.13 36.66 36.60 35.89 34.47 32.23 31.35 31.31 28.49 31.68 30.27 30.99 32.61 30.99 36.97 34.37 30.57 30.15 37.28 37.58 38.26 41.71 42.41 40.89 41.46 43.23 39.95
41.15 41.23 41.46 41.70 41.78 41.70 41.80 41.80 42.27 42.47 42.54 42.90 43.08 42.89 43.18 43.60 44.19 40.72 34.28 39.69 39.56 39.10 32.98 25.35 33.05 35.34 38.17 38.46 37.43 36.50 35.98 34.51 33.60 32.34 32.73 34.30 35.60 33.00 29.02 28.71 35.25 37.67 38.03 37.20 35.72 40.68 39.90 40.88 42.40 43.24 40.26 38.77 37.68 36.02
40.87 40.67 41.03 41.45 41.83 42.06 42.12 42.31 42.48 42.69 42.86 43.08 42.78 42.57 42.72 44.11 42.47 36.58 32.19 35.68 42.27 39.70 31.93 25.55 26.23 34.89 37.90 36.24 36.94 35.77 37.42 36.52 34.92 32.72 32.46 32.13 32.66 35.02 29.36 25.98 34.09 36.91 38.20 39.08 40.74 40.22 39.55 40.91 40.01 40.16 37.77 34.79 34.17 32.31
40.47 40.62 41.10 41.45 41.75 42.07 42.33 42.55 42.84 43.11 43.31 43.49 43.38 43.32 43.69 44.39 42.46 37.95 40.52 44.38 42.63 37.27 35.41 26.41 25.88 30.50 38.05 32.96 32.72 37.88 36.61 36.94 35.25 33.74 35.30 33.21 34.22 32.72 28.63 33.35 34.48 35.67 38.72 39.65 40.41 41.82 41.35 41.35 42.09 39.95 38.89 35.82 31.60 29.02
40.73 40.96 41.15 41.63 42.11 42.76 43.12 43.83 44.24 44.09 44.16 44.29 44.46 44.02 42.63 40.49 35.88 37.42 44.18 44.44 42.44 37.32 27.73 27.50 24.95 22.92 37.12 35.67 36.79 36.83 37.37 30.57 36.62 31.43 33.33 33.98 30.47 28.91 31.50 31.03 30.99 32.10 32.44 33.63 38.18 37.52 37.94 37.77 38.33 41.17 38.56 34.69 30.11 27.68
41.09 41.22 41.96 41.98 42.54 42.92 44.59 44.54 44.67 44.67 45.03 45.87 42.17 32.49 29.32 34.85 43.10 42.81 37.22 34.87 32.65 33.00 34.43 28.52 31.08 25.11 34.12 31.02 33.53 32.11 33.80 28.37 28.30 30.34 34.11 29.88 29.50 33.80 33.30 32.44 30.21 30.00 30.86 31.96 31.72 30.85 32.21 32.32 34.33 36.28 33.81 33.83 30.24 26.71
40.87 40.93 41.64 42.26 43.70 44.83 44.82 45.06 45.34 45.54 42.76 37.36 32.27 33.17 37.69 43.83 38.89 34.80 29.08 29.04 27.30 27.73 31.02 31.25 29.92 26.47 33.54 27.10 26.81 33.11 25.55 27.62 22.52 26.23 27.54 27.40 27.94 29.51 31.53 31.16 30.20 28.99 29.01 29.93 30.07 31.22 30.61 30.59 30.62 32.74 29.27 28.05 26.57 25.08
41.14 42.58 43.98 44.50 44.84 44.83 45.14 44.97 43.99 40.37 38.56 38.49 39.33 41.71 40.65 36.33 32.27 28.51 26.56 28.27 27.95 25.25 27.99 28.04 29.37 31.30 29.63 34.29 27.74 28.79 23.60 24.88 19.18 31.04 29.02 25.65 25.57 27.71 28.26 28.01 29.29 27.72 27.27 27.57 28.29 27.15 27.80 28.03 29.87 28.38 27.57 26.09 25.12 24.17
43.64 43.57 44.31 44.62 44.69 45.12 45.14 43.73 43.23 42.89 43.47 41.55 38.35 33.45 33.14 30.98 25.45 23.03 21.94 21.10 22.81 25.73 27.09 27.47 28.20 30.14 31.89 31.87 30.77 28.63 19.79 18.68 27.23 16.26 22.46 22.83 25.18 26.11 26.18 26.46 26.68 27.24 26.22 25.33 24.60 24.80 24.82 25.07 25.93 26.59 24.79 24.29 23.82 21.83
42.64 43.28 43.90 44.58 44.65 44.89 43.73 43.39 43.91 43.71 39.91 33.59 31.45 26.84 26.01 22.96 25.96 23.91 25.32 26.41 28.63 26.45 29.84 29.31 29.65 30.05 27.63 25.82 25.31 16.45 22.36 28.41 23.25 15.02 18.63 22.01 23.51 24.65 24.99 26.36 24.79 23.77 24.13 19.80 20.02 20.97 21.00 21.62 21.64 22.18 21.86 21.83 20.84 19.95
44.43 43.87 44.60 44.53 44.80 44.07 43.68 44.10 42.12 40.14 35.08 29.93 27.98 19.18 19.78 27.84 29.62 30.61 32.20 31.49 31.00 28.01 28.71 28.40 28.48 27.98 28.93 24.18 28.28 24.25 24.56 21.55 20.99 13.75 17.13 22.03 22.97 23.84 23.83 24.29 22.43 21.74 17.83 16.26 13.47 11.01 11.67 14.05 16.49 18.57 19.66 19.99 19.30 18.14
42.68 44.19 43.55 44.60 44.41 44.21 42.22 39.58 38.15 35.41 31.09 26.08 22.96 23.02 28.90 27.84 26.66 28.61 29.19 28.54 30.39 29.51 31.92 29.14 27.84 22.87 19.30 18.90 24.28 23.19 21.80 16.46 12.81 15.94 18.82 20.50 21.05 20.70 22.32 21.77 20.89 17.47 13.56 9.38 6.51 8.14 9.17 10.55 11.81 14.90 16.64 16.48 16.33 16.23
40.47 37.84 41.77 41.68 41.48 41.11 40.06 35.08 33.88 30.26 27.30 22.23 21.36 24.54 26.08 24.71 23.74 25.25 26.99 27.31 30.54 30.89 28.26 29.94 24.47 18.99 23.68 23.86 19.51 21.34 11.29 14.87 18.44 16.66 17.85 17.06 18.45 17.44 18.77 18.30 17.30 17.63 14.22 12.27 10.11 13.20 11.65 12.85 12.92 13.02 11.05 12.44 13.20 13.05
37.86 40.17 41.38 41.56 40.59 38.31 36.32 34.91 29.85 26.98 22.52 24.11 19.83 20.67 21.79 21.29 21.00 22.35 23.61 26.97 28.26 29.59 29.10 24.45 25.53 16.74 9.08 11.50 7.69 13.11 18.43 22.16 21.06 19.03 14.87 14.03 14.96 12.98 16.47 13.22 11.98 13.36 13.47 12.60 13.24 12.73 11.25 10.04 11.36 11.51 12.27 13.03 12.75 12.12
39.64 39.87 41.40 41.60 39.65 33.64 30.70 29.90 29.30 22.22 23.32 23.64 23.34 22.92 20.90 17.64 19.91 19.19 20.72 23.09 25.42 24.46 23.77 16.84 7.94 6.51 6.83 11.49 10.20 12.35 15.09 16.77 18.00 19.29 17.04 12.07 11.26 13.77 14.84 14.97 13.93 11.70 13.21 14.50 15.33 15.71 12.13 11.55 13.80 14.44 13.77 12.85 10.39 10.71
41.31 41.39 40.87 40.86 39.64 29.88 27.10 27.16 30.70 24.58 19.98 21.36 22.39 19.17 18.35 18.48 15.84 15.08 17.35 18.49 19.55 16.69 12.15 8.71 6.05 6.93 8.42 11.45 15.26 16.34 18.17 18.86 20.80 18.00 16.88 13.68 11.98 12.75 13.04 15.68 12.88 13.59 17.26 17.40 16.04 16.65 15.49 14.11 13.96 13.69 13.11 11.84 10.43 9.53
39.43 39.26 40.91 39.58 34.10 31.76 26.46 24.15 24.14 24.29 24.42 19.27 21.36 19.72 14.35 17.70 14.08 12.45 12.64 17.53 12.79 11.16 9.36 10.71 10.88 11.94 14.26 16.67 18.31 19.83 19.86 20.84 20.61 21.09 19.88 20.40 16.72 18.08 16.89 18.50 19.62 15.82 13.68 13.95 13.45 13.01 13.09 12.94 13.07 12.99 11.64 10.65 11.16 10.92
36.20 40.02 36.66 36.39 30.77 30.18 27.86 27.68 24.06 24.00 22.70 21.13 22.70 21.39 11.75 9.48 8.82 11.26 17.21 10.70 9.93 11.42 12.88 13.59 14.84 15.56 16.99 15.96 17.59 18.47 19.21 21.96 20.82 19.78 18.76 19.12 17.46 17.71 16.77 16.66 16.56 14.80 14.85 14.16 13.33 11.71 11.53 12.31 12.14 11.63 10.53 10.66 11.75 11.61
35.93 35.59 31.19 30.22 25.62 23.81 23.10 32.11 24.96 25.09 17.65 18.31 21.91 16.98 13.19 12.54 14.51 19.61 10.15 12.67 13.07 16.57 17.37 18.20 18.49 19.80 17.83 17.90 18.29 17.24 18.46 18.83 17.57 17.66 15.88 16.55 16.64 16.74 15.94 15.44 15.74 14.09 12.95 13.32 14.42 13.18 12.05 12.82 12.55 11.86 12.03 11.65 11.06 10.58
29.80 23.96 23.30 21.98 22.53 16.46 23.89 22.29 25.97 24.11 22.92 18.20 15.62 13.01 13.90 13.49 17.57 12.33 8.44 10.62 13.86 16.32 15.80 16.57 17.19 17.59 16.58 16.09 14.44 14.43 15.09 17.01 15.70 15.96 17.11 16.11 14.89 14.93 16.29 15.38 15.94 15.70 15.76 15.21 14.18 13.42 12.90 11.73 12.00 11.48 10.97 9.84 9.88 9.48
16.70 13.60 15.95 11.78 18.00 14.97 14.03 15.83 17.51 17.94 14.76 17.64 14.79 13.50 17.63 20.28 11.57 9.04 7.82 10.36 11.30 11.45 13.18 15.84 14.18 13.65 12.39 12.36 13.06 13.25 15.43 16.32 14.30 12.67 13.82 17.04 16.19 15.78 15.36 16.75 17.18 16.85 17.59 14.69 13.19 12.42 12.14 12.49 12.28 11.90 11.17 10.02 9.58 8.26
7.84 9.82 9.49 8.77 10.08 12.17 15.57 11.66 11.56 10.13 10.12 7.55 10.87 14.36 13.39 6.73 2.23 2.49 7.71 8.39 6.70 10.62 10.12 11.64 12.19 12.51 12.33 13.13 11.30 11.30 12.39 15.37 14.82 11.75 12.65 14.42 15.90 15.08 14.13 13.51 13.66 15.00 19.00 17.47 15.88 13.67 12.98 12.79 12.08 10.94 9.92 9.55 8.79 7.47
1.71 2.06 14.00 18.97 17.75 17.12 10.05 11.20 13.23 6.99 2.68 3.42 4.73 4.91 3.73 -4.01 -1.78 6.52 12.45 14.12 13.31 12.61 13.31 14.35 14.65 13.21 11.75 11.56 13.84 14.65 15.00 15.36 13.83 13.37 15.16 15.03 14.84 14.67 12.97 10.65 10.56 14.36 17.31 16.15 14.84 13.58 11.91 10.89 10.36 10.17 9.22 9.33 9.03 8.38
11.48 9.71 1.32 5.20 8.53 12.07 5.02 4.32 1.78 0.76 3.15 10.70 7.07 -2.93 -5.77 -3.78 1.44 9.94 11.09 13.70 17.20 16.58 16.61 14.81 13.94 12.93 11.17 10.57 10.67 10.85 12.03 13.80 13.50 14.22 14.89 14.98 14.72 13.55 13.02 13.55 14.93 17.11 15.74 14.19 13.01 12.91 11.92 11.06 10.57 10.27 9.67 8.73 8.01 8.91
2.01 7.85 6.81 -1.23 3.39 5.83 4.96 0.93 3.79 7.83 10.17 9.35 -3.84 -4.86 0.92 9.61 9.71 12.26 9.90 7.37 10.02 11.38 8.45 7.29 9.35 8.75 10.26 9.85 9.06 8.38 7.91 11.48 10.47 6.83 6.50 6.77 7.79 10.48 13.50 12.77 12.16 11.60 11.45 14.14 16.93 13.62 12.86 11.51 10.62 9.74 9.37 8.83 8.01 8.55
5.12 9.14 2.98 -1.23 -0.93 2.91 3.65 0.08 -1.52 -4.16 4.89 4.77 8.56 8.23 6.77 5.24 7.72 9.26 9.95 6.97 5.19 1.63 -3.41 -1.24 0.72 3.40 4.11 3.30 2.44 4.18 5.24 5.25 3.75 3.12 3.12 3.15 5.49 9.35 10.71 11.50 8.38 5.93 7.41 8.34 8.57 9.98 13.11 9.76 11.12 8.01 5.89 4.91 4.82 4.72
11.05 5.49 3.08 3.89 4.73 4.64 2.19 1.92 3.90 5.06 -1.25 -1.92 -6.06 -3.97 -3.26 -0.18 4.06 6.81 7.73 2.36 2.37 -3.53 -1.38 -3.08 -0.57 -2.87 -1.62 -1.30 -3.23 -1.86 -1.49 2.26 1.42 1.94 2.85 3.28 3.09 4.16 7.34 8.25 8.10 8.00 6.87 5.56 4.84 4.21 2.85 2.11 2.64 2.14 1.74 1.50 -0.58 -0.86
-1.05 -5.67 -3.61 -0.56 4.24 5.82 4.30 2.56 -2.35 2.07 -2.68 -4.33 -3.23 -9.03 -2.50 -3.49 -6.49 -1.11 6.90 -1.88 -2.59 -5.61 -10.66 -11.93 -8.12 -4.50 -8.30 -9.21 -11.02 -9.57 -6.13 -6.85 -5.95 -5.59 -4.89 -5.25 -4.72 -2.92 -0.49 0.97 2.37 2.15 4.18 3.71 2.81 2.74 2.69 1.23 0.80 -1.52 -4.39 -5.59 -3.79 -5.14
3.82 5.88 -3.96 -1.47 0.16 0.76 3.11 2.87 -1.07 1.89 -3.05 -7.94 -2.00 -5.04 -6.49 -7.30 -7.24 -0.64 0.50 -4.69 -3.88 -4.50 -6.49 -8.30 -10.66 -11.75 -7.94 -5.97 -9.46 -12.30 -11.75 -13.56 -10.12 -1.05 -3.23 -4.86 -9.03 -9.21 -13.62 -11.82 -7.62 -5.59 -2.94 -4.61 -7.27 -5.40 -4.15 -4.19 -7.76 -9.23 -11.08 -13.92 -16.46 -17.19
MSLP
1013.00 1013.33 1013.66 1014.00 1014.34 1014.63 1014.89 1015.12 1015.38 1015.70 1015.89 1016.05 1016.12 1016.27 1016.45 1016.78 1017.05 1017.86 1018.25 1018.31 1018.75 1018.24 1017.41 1016.71 1016.43 1016.33 1016.07 1015.96 1015.82 1015.45 1015.07 1015.04 1014.79 1014.81 1015.04 1014.17 1013.10 1011.86 1011.13 1010.06 1009.84 1009.48 1009.50 1009.95 1010.37 1009.90 1008.25 1005.75 1004.91 1004.74 1004.70 1004.21 1004.11 1004.13
1012.18 1012.49 1012.78 1013.19 1013.50 1013.79 1014.08 1014.34 1014.64 1014.94 1015.24 1015.47 1015.63 1015.81 1016.07 1016.36 1016.69 1017.18 1017.91 1017.77 1018.03 1018.60 1017.56 1016.53 1016.25 1015.82 1015.60 1015.39 1015.65 1015.45 1015.50 1015.48 1015.64 1015.49 1015.49 1014.86 1013.44 1012.47 1011.67 1010.45 1009.93 1009.03 1009.23 1009.03 1008.67 1008.07 1006.80 1006.02 1005.34 1004.77 1004.45 1004.02 1003.75 1003.77
1011.24 1011.59 1011.97 1012.36 1012.67 1012.95 1013.21 1013.48 1013.80 1014.14 1014.50 1014.77 1015.01 1015.25 1015.54 1015.87 1016.24 1016.67 1017.21 1017.48 1017.95 1018.04 1017.25 1016.69 1015.41 1014.23 1014.35 1014.39 1014.59 1015.32 1015.22 1014.77 1015.09 1015.08 1015.55 1015.37 1014.23 1012.82 1011.90 1010.81 1009.98 1009.19 1008.83 1008.18 1007.72 1007.50 1006.90 1006.19 1005.34 1004.70 1004.47 1004.15 1003.95 1004.16
1010.30 1010.67 1011.02 1011.42 1011.72 1011.99 1012.31 1012.61 1012.97 1013.34 1013.65 1013.96 1014.25 1014.53 1014.91 1015.27 1015.63 1015.99 1016.63 1017.03 1017.44 1017.61 1016.92 1015.55 1014.17 1013.97 1013.09 1013.36 1013.69 1013.80 1014.09 1014.10 1014.51 1014.96 1015.29 1015.16 1014.42 1012.96 1011.95 1010.93 1009.87 1009.29 1008.58 1007.73 1007.52 1007.25 1007.12 1005.87 1005.50 1004.62 1004.40 1004.12 1004.50 1005.12
1009.30 1009.67 1010.04 1010.37 1010.71 1011.02 1011.34 1011.65 1011.99 1012.37 1012.75 1013.10 1013.43 1013.78 1014.16 1014.61 1015.10 1015.53 1016.03 1016.36 1016.66 1017.24 1016.73 1015.71 1014.35 1012.71 1012.11 1012.48 1012.81 1013.10 1013.53 1013.92 1014.38 1014.70 1014.71 1014.30 1013.49 1012.71 1011.67 1010.82 1009.26 1008.45 1007.91 1007.72 1007.76 1007.16 1006.47 1005.63 1004.95 1004.44 1004.24 1004.57 1004.79 1005.86
1008.18 1008.57 1008.95 1009.30 1009.63 1009.94 1010.24 1010.56 1010.88 1011.27 1011.69 1012.11 1012.53 1012.98 1013.44 1013.92 1014.44 1015.31 1015.69 1015.93 1016.02 1016.61 1016.95 1015.89 1013.75 1012.26 1011.69 1011.88 1012.27 1012.63 1012.97 1013.46 1013.92 1014.17 1013.99 1013.48 1012.47 1012.29 1011.88 1010.79 1008.76 1007.76 1007.30 1007.17 1006.88 1006.01 1005.52 1005.09 1004.88 1004.74 1005.11 1005.99 1006.85 1007.33
1007.15 1007.51 1007.84 1008.12 1008.42 1008.71 1008.97 1009.24 1009.58 1010.04 1010.49 1011.00 1011.68 1012.35 1012.89 1013.22 1013.84 1014.21 1014.55 1014.20 1014.58 1016.04 1016.63 1015.90 1014.11 1011.97 1011.22 1011.27 1011.72 1012.12 1012.37 1012.81 1013.23 1013.50 1013.31 1012.86 1012.19 1012.09 1011.80 1010.71 1008.74 1008.39 1007.80 1006.97 1006.15 1005.86 1005.87 1005.64 1005.62 1006.03 1006.61 1007.69 1008.20 1008.78
1006.10 1006.39 1006.64 1006.90 1007.12 1007.33 1007.59 1007.84 1008.20 1008.65 1009.14 1009.81 1010.61 1011.48 1012.20 1012.76 1013.60 1014.17 1013.96 1013.83 1014.68 1015.68 1016.22 1015.68 1014.02 1012.53 1010.78 1011.24 1011.68 1011.73 1012.09 1012.44 1012.81 1012.82 1012.56 1012.22 1011.80 1011.64 1011.47 1010.86 1010.36 1009.53 1008.37 1007.60 1007.16 1006.73 1006.82 1006.84 1006.59 1006.81 1007.24 1008.29 1009.14 1009.92
1004.92 1005.13 1005.32 1005.50 1005.71 1005.88 1005.99 1006.18 1006.62 1007.23 1007.77 1008.52 1009.59 1010.85 1011.82 1012.30 1012.70 1013.20 1013.67 1014.08 1014.45 1015.10 1015.19 1014.77 1013.82 1012.30 1010.67 1010.97 1011.44 1011.57 1011.79 1012.14 1012.32 1012.30 1012.02 1012.12 1011.63 1011.73 1011.89 1011.81 1011.62 1011.30 1010.79 1010.08 1008.90 1008.33 1008.08 1008.12 1007.99 1007.70 1008.13 1009.00 1009.90 1010.84
1003.57 1003.69 1003.81 1004.04 1004.21 1004.47 1004.45 1004.89 1005.48 1006.14 1006.68 1007.31 1008.97 1010.76 1011.37 1011.80 1012.18 1013.02 1014.41 1014.55 1014.35 1014.47 1014.08 1013.54 1012.81 1012.22 1011.11 1011.12 1011.66 1012.05 1011.82 1011.97 1011.98 1011.62 1011.52 1011.74 1011.93 1012.40 1012.67 1012.78 1013.00 1012.78 1012.33 1011.61 1010.59 1010.28 1009.99 1009.83 1009.67 1009.48 1009.78 1009.94 1010.75 1011.66
1002.24 1002.28 1002.30 1002.46 1002.57 1002.91 1003.54 1004.16 1004.59 1005.51 1006.26 1007.81 1009.11 1009.84 1010.56 1011.08 1012.16 1013.26 1013.72 1014.16 1014.09 1013.82 1013.01 1012.18 1012.01 1011.61 1010.95 1011.33 1011.74 1012.11 1012.11 1012.07 1012.04 1011.42 1011.55 1011.77 1012.28 1013.12 1013.45 1013.55 1013.73 1013.60 1013.45 1013.17 1012.99 1012.62 1012.38 1011.99 1011.43 1010.83 1011.21 1011.63 1012.14 1012.68
1000.71 1000.57 1000.61 1001.07 1001.70 1002.40 1003.01 1003.75 1004.63 1005.47 1006.40 1006.99 1007.58 1009.11 1010.29 1011.08 1011.76 1012.26 1012.50 1012.72 1012.81 1012.17 1011.46 1011.33 1010.95 1011.04 1010.95 1010.98 1011.77 1012.29 1012.48 1012.49 1012.19 1011.72 1011.95 1012.46 1013.83 1014.35 1014.39 1014.46 1014.46 1014.57 1014.40 1014.24 1014.09 1013.91 1013.60 1013.27 1012.84 1012.52 1012.50 1012.87 1013.32 1013.70
999.23 999.52 999.94 1000.53 1001.17 1001.93 1002.70 1003.79 1004.62 1005.34 1005.92 1006.63 1007.77 1009.00 1009.55 1010.62 1010.91 1011.00 1010.88 1011.52 1011.42 1010.67 1010.35 1010.47 1010.72 1010.85 1011.08 1011.39 1012.24 1012.51 1012.70 1012.50 1012.08 1012.65 1013.05 1014.26 1015.02 1015.30 1015.42 1015.45 1015.43 1015.45 1015.54 1015.45 1015.30 1015.12 1014.90 1014.54 1014.29 1013.93 1013.94 1014.13 1014.41 1014.83
998.38 998.51 998.98 999.77 1000.74 1001.62 1002.92 1003.78 1004.54 1005.29 1005.85 1007.07 1007.91 1008.95 1009.44 1009.93 1009.70 1009.67 1009.57 1009.54 1009.54 1009.68 1009.80 1010.14 1010.87 1010.98 1011.44 1011.85 1012.17 1012.82 1012.72 1012.74 1013.24 1013.91 1014.79 1015.66 1015.90 1016.16 1016.17 1016.27 1016.38 1016.53 1016.74 1016.87 1016.79 1016.48 1016.22 1015.84 1015.63 1015.48 1015.30 1015.33 1015.52 1015.93
996.29 996.95 998.00 999.55 1000.50 1001.78 1002.91 1003.92 1004.82 1005.43 1006.43 1007.60 1008.16 1009.15 1009.51 1009.46 1009.48 1009.47 1009.48 1009.71 1009.90 1009.76 1009.66 1010.39 1011.06 1011.39 1012.06 1012.50 1012.67 1013.12 1013.31 1013.78 1014.57 1015.57 1016.41 1016.85 1016.96 1017.04 1017.05 1017.11 1017.26 1017.51 1017.83 1018.01 1018.01 1017.93 1017.61 1017.29 1016.97 1016.72 1016.62 1016.56 1016.65 1016.98
997.16 997.30 998.54 999.52 1000.94 1002.18 1003.44 1004.56 1005.37 1006.18 1007.84 1008.79 1009.54 1009.98 1010.00 1010.12 1010.44 1010.37 1010.48 1010.63 1010.55 1010.35 1010.13 1010.68 1011.70 1012.45 1012.85 1013.09 1013.65 1013.98 1014.56 1015.50 1016.59 1017.05 1017.57 1017.82 1017.97 1017.95 1017.93 1017.99 1018.05 1018.34 1018.62 1018.82 1018.82 1018.68 1018.55 1018.47 1018.18 1018.03 1017.92 1017.92 1018.00 1018.16
999.42 999.93 1000.39 1001.42 1002.45 1003.40 1004.31 1005.86 1007.10 1008.12 1009.24 1010.17 1011.11 1011.25 1011.14 1011.59 1011.95 1011.95 1011.87 1011.70 1011.17 1010.94 1011.26 1011.75 1012.64 1013.17 1013.46 1014.20 1015.46 1015.95 1016.65 1016.96 1017.38 1017.96 1018.34 1018.47 1018.61 1018.60 1018.64 1018.58 1018.69 1018.89 1019.16 1019.20 1019.28 1019.43 1019.48 1019.37 1019.22 1019.11 1019.22 1019.42 1019.39 1019.62
1001.23 1001.99 1002.11 1002.71 1003.21 1004.02 1005.70 1006.75 1008.22 1009.41 1010.66 1011.53 1012.06 1012.74 1013.06 1013.45 1013.65 1013.67 1013.37 1012.78 1012.18 1012.13 1012.47 1013.53 1014.10 1015.38 1016.53 1017.18 1018.21 1018.46 1018.27 1018.11 1018.25 1018.58 1018.78 1019.04 1019.08 1019.08 1019.02 1019.17 1019.13 1019.22 1019.40 1019.61 1019.80 1019.96 1020.03 1020.06 1020.09 1020.21 1020.28 1020.43 1020.49 1020.82
1002.36 1002.80 1003.04 1003.32 1003.50 1004.82 1006.71 1007.79 1008.35 1010.17 1011.78 1012.54 1013.30 1013.60 1014.18 1014.93 1015.46 1015.43 1014.89 1014.29 1013.92 1013.96 1014.32 1015.85 1017.41 1018.65 1019.43 1019.61 1019.74 1019.69 1019.42 1019.32 1019.15 1018.99 1019.05 1019.23 1019.11 1019.14 1019.31 1019.35 1019.42 1019.56 1019.74 1019.94 1020.09 1020.19 1020.37 1020.50 1020.58 1020.73 1020.96 1021.17 1021.42 1021.83
1003.07 1003.00 1003.13 1003.43 1003.81 1005.35 1007.16 1008.58 1009.05 1010.64 1012.24 1013.34 1013.94 1014.74 1015.53 1016.22 1016.44 1016.61 1016.32 1016.02 1015.81 1016.56 1017.90 1019.20 1020.34 1020.84 1020.91 1020.85 1020.59 1020.35 1019.98 1019.68 1019.37 1019.27 1019.45 1019.61 1019.43 1019.43 1019.56 1019.69 1019.84 1019.98 1020.15 1020.33 1020.43 1020.49 1020.74 1021.03 1021.26 1021.44 1021.67 1021.90 1022.14 1022.58
1003.95 1004.44 1004.23 1004.28 1004.94 1005.94 1007.98 1009.39 1010.46 1011.59 1012.66 1013.73 1014.56 1015.28 1016.57 1016.97 1017.45 1017.70 1017.81 1017.83 1018.25 1019.93 1020.93 1021.31 1021.49 1021.38 1021.26 1021.19 1021.00 1020.65 1020.21 1019.88 1019.48 1019.53 1019.62 1019.59 1019.62 1019.69 1019.83 1019.88 1020.03 1020.22 1020.39 1020.65 1020.85 1021.12 1021.28 1021.59 1021.88 1022.10 1022.30 1022.63 1022.92 1023.24
1004.20 1004.28 1004.47 1004.63 1005.99 1007.36 1008.73 1009.57 1010.37 1011.45 1012.70 1013.82 1014.60 1015.41 1016.75 1017.75 1018.42 1018.82 1019.09 1019.66 1021.27 1022.05 1022.02 1021.89 1021.71 1021.57 1021.64 1021.56 1021.37 1021.03 1020.62 1020.25 1020.09 1020.06 1020.01 1019.95 1020.06 1020.16 1020.29 1020.34 1020.38 1020.64 1020.88 1021.12 1021.37 1021.68 1022.03 1022.31 1022.52 1022.75 1022.97 1023.35 1023.59 1023.89
1004.25 1004.60 1005.50 1006.26 1007.61 1008.86 1010.47 1010.32 1010.88 1011.82 1013.03 1014.12 1014.61 1015.92 1017.22 1018.14 1018.89 1019.03 1020.44 1021.73 1022.57 1022.75 1022.45 1022.05 1021.84 1021.86 1022.01 1022.01 1021.78 1021.54 1021.28 1021.06 1020.94 1020.92 1020.89 1020.85 1020.81 1020.80 1020.82 1020.90 1020.90 1021.06 1021.31 1021.67 1021.92 1022.20 1022.56 1022.92 1023.17 1023.37 1023.65 1023.97 1024.19 1024.47
1005.65 1007.28 1008.21 1008.86 1009.43 1010.68 1010.83 1011.26 1011.59 1012.54 1013.57 1014.50 1015.50 1016.67 1017.51 1018.47 1019.23 1020.29 1021.74 1022.92 1023.41 1023.20 1022.89 1022.62 1022.38 1022.39 1022.53 1022.51 1022.56 1022.52 1022.32 1022.05 1021.89 1021.78 1021.69 1021.58 1021.52 1021.51 1021.44 1021.52 1021.47 1021.53 1021.67 1022.01 1022.33 1022.68 1023.09 1023.47 1023.76 1024.03 1024.33 1024.57 1024.82 1025.05
1008.03 1011.25 1011.22 1011.46 1011.44 1011.92 1012.52 1012.99 1013.52 1014.02 1015.08 1015.82 1016.69 1017.43 1017.77 1018.57 1019.91 1021.50 1022.66 1023.64 1024.01 1023.93 1023.75 1023.50 1023.40 1023.39 1023.39 1023.46 1023.45 1023.33 1023.05 1022.81 1022.75 1022.72 1022.65 1022.34 1022.25 1022.21 1022.16 1022.03 1022.03 1022.09 1022.21 1022.44 1022.82 1023.19 1023.57 1023.89 1024.20 1024.48 1024.78 1025.05 1025.30 1025.66
1011.91 1013.48 1013.42 1013.58 1013.60 1013.66 1014.28 1015.00 1015.46 1016.08 1016.66 1017.54 1018.14 1018.45 1018.86 1020.14 1021.79 1023.05 1023.83 1024.36 1024.62 1024.57 1024.50 1024.28 1024.16 1024.18 1024.22 1024.24 1024.17 1024.04 1023.97 1023.70 1023.55 1023.50 1023.60 1023.28 1022.96 1022.87 1022.91 1022.82 1022.72 1022.75 1022.66 1022.80 1023.13 1023.53 1023.91 1024.21 1024.51 1024.86 1025.23 1025.56 1025.88 1026.22
1014.30 1015.23 1015.16 1015.09 1014.98 1015.12 1016.24 1016.96 1017.46 1018.09 1018.85 1019.51 1019.86 1020.30 1020.87 1022.63 1023.58 1024.38 1024.63 1024.76 1024.89 1025.02 1024.88 1024.81 1024.78 1024.93 1025.10 1025.09 1024.91 1024.81 1024.59 1024.39 1024.35 1024.48 1024.42 1024.18 1024.05 1023.99 1023.94 1023.93 1023.81 1023.71 1023.42 1023.42 1023.56 1023.83 1024.21 1024.59 1024.94 1025.27 1025.62 1025.95 1026.26 1026.59
1015.67 1016.50 1016.92 1017.41 1017.32 1017.58 1018.39 1019.45 1020.16 1020.74 1020.94 1020.98 1021.33 1022.88 1023.70 1024.18 1025.00 1025.12 1025.23 1025.34 1025.05 1025.28 1025.55 1025.68 1025.70 1025.83 1025.96 1026.07 1026.01 1025.75 1025.50 1025.31 1025.16 1025.09 1025.04 1025.02 1025.03 1024.97 1024.84 1024.70 1024.53 1024.30 1024.24 1024.20 1024.30 1024.46 1024.72 1025.03 1025.36 1025.71 1026.04 1026.39 1026.74 1027.02
1017.17 1017.82 1018.40 1019.45 1019.35 1020.00 1020.96 1021.75 1022.33 1022.41 1022.38 1022.18 1023.38 1024.40 1025.16 1025.63 1025.86 1025.82 1026.12 1026.13 1026.05 1026.27 1026.68 1026.87 1026.91 1026.90 1026.91 1026.91 1026.89 1026.85 1026.62 1026.19 1026.23 1026.32 1026.29 1026.32 1026.13 1026.05 1025.78 1025.62 1025.48 1025.31 1025.15 1025.06 1025.13 1025.22 1025.37 1025.60 1025.91 1026.24 1026.55 1026.90 1027.21 1027.52
1018.53 1018.68 1019.85 1020.87 1021.65 1022.46 1022.92 1022.95 1023.40 1023.36 1023.23 1023.52 1024.28 1025.42 1026.32 1027.13 1027.33 1026.93 1026.97 1027.24 1027.58 1028.05 1028.34 1028.22 1028.18 1028.00 1028.19 1028.13 1028.21 1028.11 1028.03 1027.90 1027.83 1027.78 1027.69 1027.68 1027.57 1027.22 1026.75 1026.50 1026.39 1026.29 1026.16 1026.09 1026.17 1026.22 1026.27 1026.44 1026.73 1027.06 1027.45 1027.82 1028.12 1028.45
1018.71 1019.74 1021.17 1022.25 1023.23 1024.00 1023.94 1023.98 1023.94 1024.25 1024.94 1025.51 1026.53 1027.12 1027.95 1028.10 1028.23 1028.30 1028.29 1028.60 1028.90 1028.98 1029.22 1029.66 1029.55 1029.42 1029.42 1029.49 1029.42 1029.30 1029.44 1029.38 1029.22 1029.01 1028.80 1028.68 1028.46 1028.13 1027.73 1027.32 1027.04 1026.81 1026.97 1027.06 1027.13 1027.24 1027.46 1027.76 1028.02 1028.34 1028.66 1029.01 1029.34 1029.64
1020.37 1021.53 1022.48 1023.62 1024.36 1024.46 1024.33 1024.82 1025.44 1026.25 1026.99 1027.30 1028.13 1027.97 1028.63 1029.03 1029.63 1029.48 1029.39 1029.63 1029.93 1030.44 1030.51 1030.45 1030.86 1030.69 1030.31 1030.04 1029.99 1030.08 1030.32 1030.39 1030.24 1030.14 1029.90 1029.69 1029.57 1029.28 1028.76 1028.30 1027.84 1027.64 1027.79 1027.87 1027.87 1027.89 1028.11 1028.68 1029.07 1029.43 1029.82 1030.07 1030.32 1030.73
1022.00 1022.26 1022.86 1024.06 1024.84 1025.13 1025.10 1025.29 1026.03 1027.09 1027.55 1028.59 1028.68 1028.91 1029.36 1029.67 1030.08 1030.02 1029.79 1030.04 1030.47 1030.64 1030.68 1030.92 1030.81 1030.66 1030.35 1030.18 1030.31 1030.62 1031.11 1031.08 1030.60 1030.06 1030.03 1029.98 1030.03 1029.90 1029.93 1029.57 1029.02 1028.79 1028.82 1028.92 1029.04 1029.09 1029.46 1029.88 1030.32 1030.70 1030.98 1031.22 1031.46 1031.78
Wind_Speed
19 19 18 17 17 17 17 16 16 15 14 13 12 13 11 10 9 5 3 5 4 3 6 6 4 3 3 2 1 4 5 2 3 2 2 4 3 3 4 6 5 4 6 6 5 4 10 4 7 2 4 3 2 1
18 18 16 18 18 17 16 16 17 16 15 15 14 13 12 12 10 6 3 3 4 4 5 3 11 9 7 7 4 3 2 2 2 2 2 4 3 2 4 3 2 6 2 2 8 6 3 4 3 3 4 2 2 2
21 19 19 18 16 17 18 17 16 16 17 17 17 16 16 15 13 11 3 3 3 2 6 5 10 14 10 10 7 3 3 4 3 3 1 2 5 3 3 3 5 4 4 2 1 4 7 6 5 1 5 4 3 3
22 21 19 18 18 18 18 18 17 18 19 18 18 17 17 17 15 15 4 3 3 1 4 7 3 5 6 7 9 9 6 2 3 3 2 3 3 3 3 6 6 3 6 5 3 4 8 9 7 13 9 7 2 8
21 20 19 19 18 19 20 19 19 19 20 20 20 19 18 17 17 8 3 4 4 4 3 4 8 17 13 8 10 8 7 4 2 2 3 4 3 2 3 3 3 3 2 3 3 9 6 12 7 12 11 3 6 8
20 21 21 21 20 21 21 21 21 21 21 21 20 20 17 15 15 4 4 4 6 4 3 4 5 6 5 7 7 6 6 4 3 3 3 3 4 2 2 2 6 6 11 7 4 7 11 12 7 4 10 12 10 11
21 20 21 21 20 22 23 23 23 22 23 22 20 20 19 16 8 4 5 3 15 7 2 4 5 5 5 4 4 3 5 3 3 3 4 3 3 1 2 4 6 9 11 11 9 2 6 12 4 11 14 12 13 13
19 20 21 22 23 22 24 25 25 25 24 22 22 22 20 16 10 5 2 8 12 4 2 3 5 4 5 3 2 3 3 4 4 3 2 2 2 3 3 6 9 13 11 11 8 8 7 7 7 9 11 8 9 9
21 22 23 23 23 25 25 24 23 23 22 22 22 17 7 5 4 4 8 12 2 2 5 4 3 4 1 3 2 2 3 2 3 3 3 3 2 2 6 8 11 13 12 13 9 12 12 12 10 6 6 6 7 7
23 23 22 23 24 23 19 18 18 18 16 15 15 3 3 4 14 14 5 1 1 3 3 4 3 3 1 1 2 1 2 2 3 5 3 3 2 6 7 10 9 10 12 14 10 13 13 12 10 7 8 7 7 6
26 27 24 23 24 17 17 16 15 14 24 4 4 3 4 20 4 2 4 5 3 4 5 5 8 3 2 3 2 2 2 1 1 3 4 3 2 3 8 10 10 10 10 11 11 9 10 9 9 6 8 8 7 7
29 28 20 17 16 16 15 14 27 6 4 7 9 8 5 3 3 5 6 4 6 7 4 5 5 6 1 3 3 0 2 1 4 1 2 2 3 7 8 10 10 10 10 12 12 12 11 10 8 4 5 6 6 8
10 10 15 17 18 18 18 31 20 15 18 7 4 4 4 2 6 6 6 4 4 4 4 2 1 4 2 3 2 1 2 5 1 3 2 3 4 6 7 6 8 9 9 9 11 10 9 8 9 6 6 6 6 7
11 15 17 22 20 23 30 24 25 17 4 3 4 7 4 5 4 5 5 5 3 2 5 4 3 3 2 3 3 4 5 1 2 1 2 2 4 5 5 6 6 7 7 6 7 8 8 8 7 7 6 5 6 7
11 19 21 24 27 32 30 27 10 3 3 3 3 4 2 2 2 1 2 2 3 0 3 4 4 3 2 3 2 1 2 3 2 1 1 1 3 4 5 4 4 4 3 4 4 3 5 6 5 7 7 6 8 9
23 20 14 30 31 30 29 14 5 4 4 3 6 3 2 4 3 3 3 2 4 2 1 4 3 2 2 4 3 3 2 1 3 1 1 1 2 3 2 3 3 3 2 2 2 3 5 5 5 5 8 8 8 9
20 9 33 32 27 24 19 7 4 6 3 4 3 3 3 5 4 3 3 3 4 2 3 3 4 6 1 3 3 3 1 2 2 1 1 0 2 2 3 3 3 2 2 3 3 5 4 5 5 7 9 8 10 10
10 13 21 20 14 10 5 3 4 4 6 4 4 3 4 5 2 4 4 5 3 2 3 3 3 5 3 3 1 2 3 4 2 1 1 1 1 1 1 2 2 2 3 3 4 2 3 5 6 6 7 8 9 9
7 6 11 10 6 6 4 3 4 5 4 3 2 2 3 3 5 4 5 6 4 5 4 4 7 3 1 2 1 2 2 2 3 4 2 2 1 0 2 3 3 4 3 2 1 2 2 3 3 4 5 5 6 5
14 12 13 9 6 4 5 3 4 5 3 2 3 4 3 3 1 4 8 7 5 4 7 6 2 1 2 2 1 2 2 3 4 2 2 2 1 3 1 2 2 2 4 4 4 5 5 5 4 5 5 5 6 6
11 3 3 3 3 6 5 3 4 3 4 4 3 3 3 2 3 4 4 5 6 5 3 2 1 2 2 1 2 3 4 4 2 2 2 1 1 2 2 2 3 2 2 3 4 5 6 4 4 5 6 6 6 6
2 10 2 4 5 5 4 3 5 3 4 3 3 3 3 3 3 3 2 6 4 2 1 2 2 1 2 3 4 4 5 5 5 3 5 5 3 3 3 2 2 3 4 4 4 5 5 4 5 5 6 6 7 7
6 5 5 4 6 5 1 1 4 2 5 2 2 4 3 3 2 0 4 3 2 2 4 2 3 7 5 4 6 8 8 7 5 4 3 4 4 4 3 3 2 4 4 4 4 5 5 6 6 6 6 6 7 7
8 6 5 4 5 2 2 3 3 3 3 3 3 3 3 3 2 4 4 2 2 3 5 7 5 4 3 6 5 5 5 3 4 5 5 3 4 4 3 3 4 4 4 5 5 5 5 5 6 5 5 6 6 6
10 8 5 6 5 5 5 3 3 4 4 3 3 2 3 3 3 3 2 2 2 4 5 4 5 5 4 2 3 4 7 5 3 4 5 3 3 3 4 4 4 4 4 5 5 5 5 4 4 5 5 5 6 7
9 4 5 3 4 4 3 3 3 3 3 3 2 1 3 4 5 3 2 1 1 2 2 3 2 2 4 4 3 3 4 4 3 4 5 5 4 3 3 4 4 4 3 3 4 5 5 3 5 6 6 7 8 7
6 4 3 4 3 3 5 4 4 5 5 3 1 3 4 5 3 2 1 2 1 0 1 2 3 4 4 4 4 4 4 5 5 3 3 5 6 6 5 3 4 3 4 5 4 5 6 6 6 6 5 5 5 5
4 4 5 5 6 5 5 4 4 3 1 3 4 5 4 3 2 1 1 2 4 4 4 5 5 5 5 5 4 4 3 3 3 3 4 5 5 5 5 5 6 10 5 4 4 4 5 5 5 5 5 5 4 4
4 1 5 7 6 6 5 3 3 2 3 2 5 3 3 3 3 3 2 2 3 5 5 4 4 2 4 4 6 6 6 4 3 6 6 5 4 5 3 4 4 4 4 4 7 5 6 5 5 5 5 4 3 4
1 2 5 4 6 5 4 2 1 3 2 3 5 8 5 3 4 4 4 5 6 5 1 2 2 4 3 3 3 6 7 7 6 3 3 2 2 3 4 4 3 3 3 4 5 5 8 6 7 4 4 4 4 4
3 4 6 5 5 1 2 1 4 6 5 6 4 5 3 3 3 4 5 3 4 4 5 5 5 4 4 4 3 2 3 5 6 7 5 3 3 4 5 5 4 2 2 3 3 3 3 3 3 4 4 5 4 5
5 4 5 5 3 1 1 3 3 3 0 3 1 2 3 4 3 4 3 3 5 4 2 3 4 2 0 1 2 2 4 1 2 3 5 3 3 4 4 4 4 3 4 4 4 3 3 4 3 4 4 4 4 6
6 8 5 5 4 1 3 4 3 3 4 3 2 2 1 4 3 4 2 1 4 5 3 3 2 1 3 4 4 2 2 1 2 5 6 5 5 5 3 4 4 4 6 5 4 4 6 7 4 5 5 5 4 3
Wind_Direction
236 237 239 239 239 240 247 250 246 247 254 254 254 245 238 232 232 157 224 170 198 225 271 246 269 276 315 300 27 319 2 347 330 85 221 248 238 277 302 266 291 251 178 174 187 170 254 351 310 205 217 216 176 172
240 245 241 245 243 240 241 244 243 243 244 245 249 242 239 236 229 189 212 207 169 225 270 321 278 248 224 224 189 236 205 101 283 4 28 311 304 312 299 285 326 353 350 225 163 207 267 295 232 252 280 239 311 320
237 231 238 240 242 249 250 247 246 241 237 243 246 242 237 229 236 221 190 176 113 237 270 254 252 252 230 217 185 184 249 195 181 186 166 265 285 353 314 295 302 268 297 218 280 39 331 323 320 182 269 250 269 307
232 239 241 239 245 245 239 236 239 242 238 238 240 237 233 230 237 228 196 171 121 349 286 280 265 255 241 213 201 212 220 308 138 134 172 229 255 249 273 271 286 287 329 314 4 319 322 2 293 270 278 268 74 62
236 238 238 241 247 248 244 242 242 239 237 237 239 235 236 227 228 222 171 192 169 167 273 281 299 272 258 210 210 200 179 158 160 193 225 220 237 251 273 291 277 199 226 48 293 244 201 232 245 255 275 20 91 97
234 237 239 244 246 246 245 244 244 239 234 234 232 233 228 231 209 147 205 193 191 156 259 286 277 267 230 193 200 202 199 191 170 176 240 242 255 210 262 267 286 298 318 316 277 299 271 286 295 39 72 74 67 73
242 242 242 245 246 247 245 242 240 237 233 229 225 226 232 224 182 162 189 216 174 120 233 281 288 262 249 199 180 152 168 172 152 200 219 222 243 93 226 233 280 325 313 314 341 347 16 19 17 80 83 75 75 73
246 247 249 250 249 249 249 246 241 237 231 225 217 212 216 202 156 213 289 130 141 109 195 256 265 306 177 144 172 144 176 160 180 206 224 244 268 198 254 11 25 2 359 19 18 36 54 41 72 107 115 122 91 82
250 251 249 251 251 253 251 245 231 227 225 216 200 187 164 189 158 168 123 149 86 148 189 212 223 252 156 120 91 180 150 170 175 202 211 187 221 234 29 30 24 15 15 347 358 30 27 40 22 21 112 106 102 106
252 254 253 261 248 251 233 215 210 213 218 205 127 116 153 173 144 99 24 262 140 208 243 227 162 271 141 134 136 261 159 194 205 219 148 208 139 78 44 58 41 24 16 12 14 14 2 8 359 357 34 66 103 115
266 261 255 246 246 204 209 198 195 169 111 101 137 114 119 147 91 146 162 190 195 234 210 222 188 204 257 116 161 173 220 190 219 250 169 215 120 50 24 34 34 31 22 16 15 18 13 2 352 10 63 75 92 103
253 250 231 209 184 189 192 171 131 119 130 150 113 107 127 116 164 178 179 177 193 219 197 185 205 188 253 92 95 247 180 92 246 180 228 156 73 30 18 18 30 27 18 11 10 6 3 3 2 32 73 89 98 111
185 194 198 188 184 183 152 142 140 134 134 116 82 123 155 169 173 202 151 187 205 209 192 152 128 148 56 69 94 158 102 228 32 62 173 62 48 26 17 12 12 20 23 16 5 1 2 16 21 38 73 80 96 101
234 215 197 181 172 154 146 137 139 152 94 109 141 134 177 189 209 188 185 181 218 173 132 121 93 124 153 80 139 113 239 279 276 220 142 68 29 4 355 16 8 10 30 23 8 0 6 15 32 35 51 73 100 103
181 189 171 159 152 145 140 134 99 75 72 74 87 144 156 178 90 85 48 68 1 299 99 74 58 83 60 106 198 154 194 234 37 197 93 15 360 4 359 12 11 29 34 23 356 7 16 14 26 47 43 66 89 97
61 109 113 133 139 137 118 84 36 70 49 56 35 62 90 85 30 38 28 65 360 350 85 61 101 91 233 150 162 199 221 39 240 137 230 335 21 345 355 1 51 82 84 64 27 30 36 30 36 55 59 61 73 89
64 58 97 102 104 105 98 74 36 58 79 52 35 8 31 65 53 44 24 351 316 345 84 123 148 200 155 140 75 30 136 219 155 209 233 146 84 3 28 38 54 106 93 78 52 48 42 37 49 67 70 64 74 77
88 102 101 108 115 80 56 52 88 80 68 41 69 9 52 31 11 26 351 346 7 31 50 79 37 49 53 90 12 344 343 357 33 317 238 271 49 341 57 92 42 89 97 85 97 79 60 64 76 79 86 87 86 82
110 105 102 84 100 99 88 42 68 90 77 77 89 44 66 80 37 19 5 360 42 24 60 42 59 53 69 41 2 307 323 326 306 300 188 266 8 324 115 63 72 58 94 96 136 91 80 80 88 91 84 88 88 86
97 57 55 53 49 86 81 47 64 78 87 106 53 34 56 53 360 25 26 19 31 48 45 44 63 262 138 268 300 280 290 309 320 341 296 305 312 70 86 141 140 116 92 86 67 85 90 82 80 87 92 96 101 98
86 163 218 7 70 63 93 95 66 110 105 82 155 75 88 34 28 20 28 2 54 36 54 29 323 276 312 16 343 333 317 320 315 28 342 334 315 98 50 31 124 73 87 83 90 68 68 85 95 95 96 93 95 98
139 196 92 31 75 58 70 23 114 130 82 135 143 86 75 59 36 21 40 42 62 347 343 293 282 293 78 32 358 337 319 16 25 33 20 22 16 39 26 25 73 85 82 83 93 93 87 85 92 96 101 105 105 108
34 43 35 44 70 65 127 326 89 106 98 140 98 79 56 69 95 79 71 57 66 354 335 318 342 80 67 28 24 21 15 25 30 42 29 35 38 34 41 39 54 93 97 88 94 97 95 96 98 104 104 108 111 108
29 51 38 51 66 106 64 36 61 73 80 64 72 87 91 112 119 62 73 66 6 345 5 15 22 86 58 34 28 14 357 17 30 31 17 26 50 33 37 50 64 72 89 105 107 104 100 102 107 106 110 111 109 111
70 359 46 13 360 62 64 45 54 57 71 65 74 63 103 104 78 70 70 85 16 7 359 37 47 36 47 37 10 4 6 24 32 50 3 10 52 57 48 47 66 75 96 107 106 113 115 117 123 122 118 119 118 113
73 332 61 20 347 72 40 75 67 89 90 67 79 9 60 71 67 65 67 141 310 357 346 8 31 55 51 30 25 13 354 353 14 57 17 9 21 34 51 58 54 42 53 89 122 132 137 126 119 119 115 117 116 114
70 5 357 12 356 66 64 49 42 65 61 69 337 37 68 70 86 90 88 16 93 275 22 29 56 66 55 30 28 25 20 40 57 60 41 41 43 40 44 42 23 353 36 65 84 108 116 112 112 115 115 110 123 129
67 66 68 318 54 25 84 59 50 54 34 337 58 45 94 109 98 65 102 332 91 59 89 61 55 59 58 42 22 11 8 21 45 47 57 53 44 39 29 25 28 43 43 55 76 82 95 104 109 111 116 123 117 120
50 11 75 33 42 46 42 71 35 13 337 41 102 99 95 39 7 53 14 30 38 68 64 51 27 48 61 48 41 32 15 18 77 80 64 46 27 25 10 29 31 26 23 47 87 99 105 104 104 103 100 103 99 103
3 79 88 54 63 55 352 97 339 291 28 97 95 100 72 44 6 1 43 48 65 74 57 61 18 48 43 44 32 38 29 30 27 58 80 51 358 331 10 19 25 21 31 60 59 56 68 71 87 71 73 72 77 81
89 66 69 56 81 28 155 104 73 61 42 60 45 87 112 143 15 20 31 34 80 67 64 46 38 23 59 39 38 52 25 11 13 23 26 23 9 5 3 7 1 29 66 70 74 81 75 58 84 96 100 105 102 110
43 87 118 98 101 253 360 66 86 111 104 73 346 68 21 61 53 331 337 70 63 58 40 104 75 3 328 116 66 67 99 62 13 14 26 19 9 356 356 352 358 29 64 63 57 75 107 115 101 102 109 113 130 137
72 79 55 86 74 195 272 93 40 72 37 57 351 142 117 128 159 224 300 80 144 158 161 180 195 163 141 156 146 148 126 155 19 40 45 50 47 27 11 5 12 43 79 71 58 78 83 96 85 96 106 107 110 129